Back to catalog

STARLINK-36117

AliveCommunicationsVLEO
NORAD 66865·PAYLOAD·🇺🇸 United States

Launched Dec 2, 2025 from Cape Canaveral Space Force Station

Loading…

Next Passes (next 24 hours)

TLE

FreshSource: CelesTrak SupGP

Epoch: Sep 14, 2026, 14:46 UTC

1 66865C 25281T   26257.61576389 -.00052633  00000+0 -19068-2 0  2579
2 66865  43.0019 356.1959 0001469 274.2093  65.6012 15.27597269    19

Track STARLINK-36117 in real time with AllMySat

Download on the App Store